Montgomery, NY

6:12 AM EST on November 21, 2017 (GMT -0500)
Orange County

Weather History for KMGJ - April, 2013

Change the Weather History Date:

Friday, April 26, 2013

  Actual Average (KSWF) Record (KSWF)
Temperature  
Mean Temperature 48 °F -  
Max Temperature 64 °F 61 °F 82 °F (2011)
Min Temperature 33 °F 39 °F 26 °F (1988)
Degree Days  
Heating Degree Days 16    
Moisture  
Dew Point 31 °F    
Average Humidity 52    
Maximum Humidity 85    
Minimum Humidity 27    
Precipitation  
Precipitation 0.00 in - - ()
Sea Level Pressure  
Sea Level Pressure 30.35 in    
Wind  
Wind Speed 3 mph (NNE)    
Max Wind Speed 12 mph    
Max Gust Speed -    
Visibility 10 miles    
Events      
Averages and records for this station are not official NWS values.
T = Trace of Precipitation, MM = Missing Value Source: NWS Daily Summary

Daily Weather History Graph

Daily Weather History Graph

Search for Another Location

Airport or City:

Trip Planner

Search our weather history database for the weather conditions in past years. The results will help you decide how hot, cold, wet, or windy it might be!

Date:

Astronomy

Apr. 26, 2013 Rise Set
Actual Time 6:00 AM EDT 7:49 PM EDT
Civil Twilight 5:30 AM EDT 8:19 PM EDT
Nautical Twilight 4:54 AM EDT 8:55 PM EDT
Astronomical Twilight 4:16 AM EDT 9:34 PM EDT
Moon 9:10 PM EDT (4/26) 6:25 AM EDT (4/26)
Length of Visible Light 14h 48m
Length of Day
13h 49m
Full, 99% of the Moon is Illuminated
Apr 26
Full
May 2
Last Quarter
May 9
New
May 18
First Quarter
May 25
Full

Hourly Weather History & Observations

Time (EDT) Temp. Windchill Dew Point Humidity Pressure Visibility Wind Dir Wind Speed Gust Speed Precip Events Conditions
12:54 AM 37.9 °F - 32.0 °F 79% 30.26 in 10.0 mi Calm Calm - N/A   Clear
1:54 AM 37.0 °F - 30.0 °F 76% 30.26 in 10.0 mi Calm Calm - N/A   Clear
2:54 AM 34.0 °F - 28.0 °F 79% 30.27 in 10.0 mi Calm Calm - N/A   Clear
3:54 AM 34.0 °F - 28.9 °F 82% 30.29 in 10.0 mi Calm Calm - N/A   Clear
4:54 AM 33.1 °F 30.0 °F 28.9 °F 85% 30.31 in 10.0 mi SSW 3.5 mph - N/A   Clear
5:54 AM 35.1 °F 32.2 °F 30.0 °F 82% 30.32 in 10.0 mi SSW 3.5 mph - N/A   Clear
6:54 AM 44.1 °F 40.8 °F 30.9 °F 60% 30.36 in 10.0 mi Variable 5.8 mph - N/A   Clear
7:54 AM 50.0 °F - 34.0 °F 54% 30.38 in 10.0 mi Variable 4.6 mph - N/A   Overcast
8:54 AM 52.0 °F - 35.1 °F 53% 30.39 in 10.0 mi NNW 5.8 mph - N/A   Clear
9:54 AM 53.1 °F - 33.1 °F 47% 30.40 in 10.0 mi East 5.8 mph - N/A   Clear
10:54 AM 57.0 °F - 35.1 °F 44% 30.40 in 10.0 mi Variable 5.8 mph - N/A   Clear
11:54 AM 57.9 °F - 33.1 °F 39% 30.38 in 10.0 mi Variable 5.8 mph - N/A   Partly Cloudy
12:54 PM 59.0 °F - 32.0 °F 36% 30.37 in 10.0 mi Calm Calm - N/A   Scattered Clouds
1:54 PM 60.1 °F - 30.9 °F 33% 30.35 in 10.0 mi Calm Calm - N/A   Partly Cloudy
2:54 PM 63.0 °F - 30.0 °F 29% 30.34 in 10.0 mi Variable 4.6 mph - N/A   Clear
3:54 PM 64.0 °F - 28.9 °F 27% 30.33 in 10.0 mi NE 6.9 mph - N/A   Clear
4:54 PM 64.0 °F - 28.9 °F 27% 30.32 in 10.0 mi ENE 5.8 mph - N/A   Partly Cloudy
5:54 PM 63.0 °F - 28.9 °F 28% 30.33 in 10.0 mi NE 6.9 mph - N/A   Scattered Clouds
6:54 PM 57.9 °F - 32.0 °F 37% 30.35 in 10.0 mi NNE 11.5 mph - N/A   Scattered Clouds
7:54 PM 53.1 °F - 32.0 °F 45% 30.37 in 10.0 mi North 11.5 mph - N/A   Clear
8:54 PM 51.1 °F - 30.9 °F 46% 30.40 in 10.0 mi NNE 10.4 mph - N/A   Mostly Cloudy
9:54 PM 48.0 °F - 30.9 °F 52% 30.43 in 10.0 mi North 8.1 mph - N/A   Clear
10:54 PM 48.0 °F - 28.9 °F 48% 30.42 in 10.0 mi NNE 5.8 mph - N/A   Clear
11:54 PM 46.9 °F - 28.9 °F 50% 30.43 in 10.0 mi Calm Calm - N/A   Clear